Weather Roundup
Issued by NWS

Home | Current Version | Previous Version | Text Only | Print | Product List | Glossary On
Versions: 1 2 3 4 5 6 7 8 9 10 11 12 13 14 15 16 17 18 19 20 21 22 23 24 25 26 27 28 29 30 31 32 33 34 35 36 37 38 39 40 41 42 43 44 45 46 47 48 49 50
811
NZUS93 KARX 172010
HRRWXR

CURRENT HOURLY OBSERVATIONS ACROSS
MUCH OF THE UPPER MISSISSIPPI VALLEY
NATIONAL WEATHER SERVICE LA CROSSE WI
300 PM CDT TUE OCT 17 2017


...SOUTHEAST MINNESOTA...


CITY           SKY/WX    TMP DP  RH WIND       PRES   REMARKS
ROCHESTER      SUNNY     71  45  39 S13       30.00F
ROCHESTER/MAYO FAIR      73  42  32 SW7       29.99F
WINONA         SUNNY     73  45  35 CALM      29.99F
AUSTIN           N/A     72  43  35 S8        30.00F
ALBERT LEA     SUNNY     73  43  33 SW7       29.99F
DODGE CENTER   SUNNY     73  37  27 SW12      29.99F
PRESTON        SUNNY     70  42  37 S9        30.01F
OWATONNA       SUNNY     75  41  29 SW10      29.97F
FARIBAULT      SUNNY     73  43  33 SW8       29.97F
$$

...ELSEWHERE IN MINNESOTA...


CITY           SKY/WX    TMP DP  RH WIND       PRES   REMARKS
MINNEAPOLIS    MOSUNNY   71  45  39 SW6       29.95F
INTNL FALLS    SUNNY     71  35  26 SW13G23   29.81F
DULUTH         MOSUNNY   67  36  31 SW13      29.91F
RED WING       SUNNY     73  39  29 S5        29.95F
REDWOOD FALLS  SUNNY     76  33  21 W13       29.93F
MANKATO        SUNNY     74  41  30 SW8       29.97F
WORTHINGTON    SUNNY     75  38  26 SW12      29.99F
FAIRMONT       SUNNY     75  40  28 SW9       29.98F
$$

...SOUTHWEST WISCONSIN...


CITY           SKY/WX    TMP DP  RH WIND       PRES   REMARKS
LA CROSSE      SUNNY     70  46  42 S12       30.00F
PRAIRIE DU CHI SUNNY     72  41  32 S6        30.04F
BOSCOBEL       SUNNY     73  44  35 SW10G20   30.04F
LONE ROCK      SUNNY     70  46  42 SW13      30.04F
PLATTEVILLE    SUNNY     71  45  39 SW17G23   30.08F
FORT MC COY    SUNNY     69  46  43 S6        30.02S
CAMP DOUGLAS   MOSUNNY   70  46  43 S6        30.01F
MAUSTON-NEW LI CLEAR     70  47  43 SW5       30.01F
VIROQUA        FAIR      67  46  46 S13       30.04F
WIS DELLS      SUNNY     68  43  40 SW9       30.04S
$$

...ELSEWHERE IN WISCONSIN...


CITY           SKY/WX    TMP DP  RH WIND       PRES   REMARKS
MILWAUKEE      MOSUNNY   72  43  35 SW18G28   30.07F
MADISON        MOSUNNY   69  44  40 SW9       30.06F
GREEN BAY      SUNNY     67  50  54 SW9       30.02S
EAU CLAIRE     SUNNY     70  43  37 S12       29.96F
BLACK RVR FLS  FAIR      71  39  31 S7        30.00F
MEDFORD        CLOUDY    67  44  43 SW9       29.98F
WAUSAU         CLOUDY    69  44  40 S8        29.98F
WIS RAPIDS     SUNNY     69  47  45 S12       30.02F
MARSHFIELD     SUNNY     70  42  36 SW13      29.99F
RICE LAKE      SUNNY     71  41  33 SW10      29.97F
$$

...NORTHEAST IOWA...


CITY           SKY/WX    TMP DP  RH WIND       PRES   REMARKS
WATERLOO       SUNNY     72  42  34 SW15      30.03F
DUBUQUE        SUNNY     70  45  40 SW17      30.08F
DECORAH        SUNNY     70  43  37 SW9G17    30.02F
MASON CITY     SUNNY     70  44  39 S7        30.02F
CHARLES CITY   SUNNY     72  43  35 SW12G17   30.03F
OELWEIN        SUNNY     73  45  35 SW20      30.04F
$$

...ELSEWHERE IN IOWA...


CITY           SKY/WX    TMP DP  RH WIND       PRES   REMARKS
DES MOINES     SUNNY     72  41  32 S20       30.04F
IOWA CITY      SUNNY     74  43  32 SW14G21   30.10F
FORT DODGE     SUNNY     71  46  40 S13       30.02F
MARSHALLTOWN   SUNNY     72  44  36 SW15      30.04F
CEDAR RAPIDS   SUNNY     72  43  35 S14G21    30.07F
$$

...NORTHERN ILLINOIS...


CITY           SKY/WX    TMP DP  RH WIND       PRES   REMARKS
CHICAGO-OHARE  MOSUNNY   70  38  31 SW18      30.12F
CHICAGO-MIDWAY MOSUNNY   70  40  33 SW18G25   30.15F
MOLINE         SUNNY     71  41  33 SW14      30.11F
ROCKFORD       MOSUNNY   73  45  36 S15       30.12F
PEORIA         SUNNY     69  41  36 SW14G23   30.16F
$$

NOTE: "FAIR" INDICATES FEW OR NO CLOUDS BELOW 12,000 FEET WITH NO
SIGNIFICANT WEATHER AND/OR OBSTRUCTIONS TO VISIBILITY. WIND
SPEEDS ARE IN MILES-PER-HOUR.




USA.gov is the U.S. government's official web portal to all federal, state and local government web resources and services.